Regional Weather Roundup
Issued by NWS Green Bay, WI

Home | Current Version | Previous Version | Graphics & Text | Print | Product List | Glossary Off
Versions: 1 2 3 4 5 6 7 8 9 10 11 12 13 14 15 16 17 18 19 20 21 22 23 24 25 26 27 28 29 30 31 32 33 34 35 36 37 38 39 40 41 42 43 44 45 46 47 48 49 50

000
ASUS43 KGRB 060811
RWRGRB

NORTH-CENTRAL AND NORTHEAST WISCONSIN REGIONAL WEATHER ROUNDUP
NATIONAL WEATHER SERVICE GREEN BAY WI
300 AM CDT MON JUL 06 2015

WIZ005-009-010>012-018-019-060900-
NORTH CENTRAL WISCONSIN

CITY           SKY/WX    TMP DP  RH WIND       PRES   REMARKS
IRONWOOD       CLOUDY    66  66 100 S10       29.79F
MANITOWISH WTR CLOUDY    69  65  87 W5        29.89F
ARBOR VITAE    CLOUDY    70  65  84 S7        29.89F
EAGLE RIVER    CLOUDY    70  61  73 SW7       29.90F
LAND O LAKES   CLOUDY    70  63  77 SW5       29.90F
RHINELANDER    CLOUDY    69  63  81 SW9       29.91F
PHILLIPS       DRIZZLE   69  64  85 CALM      29.89F
ANTIGO         CLOUDY    64  63  96 S5        29.92F
TOMAHAWK       CLOUDY    67  63  87 CALM      29.90F
MERRILL        CLOUDY    69  65  87 S3        29.90F
$$

WIZ013-073-060900-
NORTHEAST WISCONSIN

CITY           SKY/WX    TMP DP  RH WIND       PRES   REMARKS
IRON MOUNTAIN  CLOUDY    67  63  87 S6        29.89F FOG
MARINETTE      MOCLDY    70  61  73 SW9       29.92F
OCONTO         MOCLDY    67  65  96 S3        29.93F
$$

WIZ017-030-035>037-045-060900-
CENTRAL WISCONSIN

CITY           SKY/WX    TMP DP  RH WIND       PRES   REMARKS
MEDFORD        CLOUDY    67  64  91 S7        29.89F
WAUSAU         CLOUDY    68  63  84 SE6       29.88F
MOSINEE        CLOUDY    66  64  94 S7        29.90F
MARSHFIELD     CLOUDY    68  62  81 S10       29.89F
WISC RAPIDS    CLOUDY    68  62  81 S6        29.90F
STEVENS POINT  CLOUDY    67  63  86 S8        29.90F
WAUPACA        MOCLDY    68  66  93 SE6       29.93F
SHAWANO        MOCLDY    69  64  81 S3        29.92F
CLINTONVILLE   MOCLDY    66  63  88 S5        29.92F
$$

WIZ038-039-048-051-060900-
FOX VALLEY

CITY           SKY/WX    TMP DP  RH WIND       PRES   REMARKS
NWS GREEN BAY  PTCLDY    66  62  87 S9        29.95F FOG
APPLETON       PTCLDY    66  61  82 S9        29.95F
OSHKOSH        PTCLDY    66  61  84 S8        29.95F HAZE
FOND DU LAC    CLEAR     67  62  84 S7        29.97F
$$

WIZ022-050-052-060900-
EAST CENTRAL WISCONSIN

CITY           SKY/WX    TMP DP  RH WIND       PRES   REMARKS
STURGEON BAY   MOCLDY    66  59  77 S9        29.97F
MANITOWOC      CLEAR     60  58  92 MISG      29.98F FOG
SHEBOYGAN      PTCLDY    59  58  96 CALM      29.98F FOG
$$

LMZ563-521-522-541>543-060900-
LAKESHORE

STATION/POSITION TIME  TEMP    WIND        PRES    VSBY  WAVE
                       AIR SEA DIR/SP/G                  HT/PER
                 (UTC) (F)     (DEG/KT/KT) (MB)    (MI)  (FT/S)
SHEBOYGAN LKSHOR 0800   62     180/ 13/ 13 1015.2F
KEWAUNEE LKSHORE 0700   63     200/  4/  6 1014.4R
NORTHPORT PIER   0700   67     150/  3/  7 1014.2R
N MID LAKE BUOY  0750   57 53  210/ 16/ 17 1014.1F         2/ 4
CHAMBERS ISLAND  0700   69     170/  5/ 15 1014.2R
MENOMINEE LKSHOR 0700   71     190/ 10/ 15 1014.6R
$$


USA.gov is the U.S. government's official web portal to all federal, state and local government web resources and services.